Вернуться в каталог

CZ-6A DEB

АктивенPO
NORAD 55231·DEBRIS·🇨🇳 China

Запущен Nov 11, 2022 с Taiyuan Satellite Launch Center

Loading…

Ближайшие Пролёты (ближайшие 24 часа)

TLE

УстаревающийSource: Space-Track

Эпоха: Sep 11, 2026, 05:33 UTC

1 55231U 22151WY  26254.23164705  .00006652  00000-0  83768-3 0  9998
2 55231  98.6208 340.7059 0068682 313.8113  45.7430 14.80723784198420

Отслеживайте CZ-6A DEB в реальном времени с AllMySat

Download on the App Store